Current Weather Conditions: station 03380

sailwx.info

Wind from 250

Air temperature 15.5° C
Dewpoint 14.8° C

Last reported at 2019-Sep-22 19:00 UTC.
Time now 2019-Sep-22 20:21 UTC

Location: N 53°36' E 000°06'.
View on Google Maps.

See reports from other nearby stations

  
Tides and Currents Weather Stations Pressure Air Temp Water Temp Dewpoint Dewpoint Depression Visibility Wind Speed Wind Dir Waves Ship Positions
date/time (UTC)wind fromknots sea level pressurealtimeterstation pressurevisibilityair tempwater tempwave heightnotes
2019-Sep-22 19:00 250 15.5
2019-Sep-22 18:00 240 17.0
2019-Sep-22 17:00 120 16.2
2019-Sep-22 16:00 110 16.4
2019-Sep-22 15:00 120 16.8
2019-Sep-22 14:00 140 16.8
2019-Sep-22 13:00 120 17.1
2019-Sep-22 12:00 120 16.8
2019-Sep-22 11:00 130 17.5
2019-Sep-22 10:00 120 17.5
2019-Sep-22 09:00 120 17.0
2019-Sep-22 08:00 120 16.8
2019-Sep-22 07:00 110 16.0
2019-Sep-22 06:00 110 15.6
2019-Sep-22 05:00 120 15.7
2019-Sep-22 04:00 120 15.6
2019-Sep-22 03:00 130 15.5
2019-Sep-22 02:00 120 15.4
2019-Sep-22 01:00 120 15.4
2019-Sep-22 00:00 130 15.3
2019-Sep-21 23:00 120 15.2
2019-Sep-21 22:00 130 15.3
2019-Sep-21 21:00 130 15.2
2019-Sep-21 20:00 120 15.3
2019-Sep-21 19:00 120 15.5
2019-Sep-21 18:00 130 15.8
2019-Sep-21 17:00 110 16.1
2019-Sep-21 16:00 110 16.4
2019-Sep-21 15:00 110 16.6
2019-Sep-21 14:00 110 16.9
2019-Sep-21 13:00 110 17.0
2019-Sep-21 12:00 110 17.1
2019-Sep-21 11:00 110 17.2
2019-Sep-21 10:00 120 16.5
2019-Sep-21 09:00 110 16.4
2019-Sep-21 08:00 110 15.9
2019-Sep-21 07:00 120 15.4
2019-Sep-21 06:00 120 15.0
2019-Sep-21 05:00 120 14.9
2019-Sep-21 04:00 120 14.8
2019-Sep-21 03:00 130 14.9
2019-Sep-21 02:00 130 14.8
2019-Sep-21 01:00 120 14.6
2019-Sep-21 00:00 120 14.6
2019-Sep-20 23:00 130 14.6
2019-Sep-20 22:00 130 14.6
2019-Sep-20 21:00 130 14.7
2019-Sep-20 20:00 130 14.8